This demonstration page uses our WeatherBlox Daily Observations layout. Learn more.

39.92423, -83.80882

Hourly Observations for April 17, 2015

Temp ( °F °C ) Dew Point ( °F °C ) Humidity (%) Winds ( mph kmh ) Pressure ( in mb ) Visibility ( mi km ) Precip ( " mm )
12:34 am 00:34 Cloudy 61 16 61 16 100 100 SSW 5 7 30.09 1019 7 11.26538 0 0
12:56 am 00:56 Cloudy 60 15.5 60 15.5 100 100 SSW 5 7 30.09 1019 7 11.26538 0 0
1:11 am 01:11 Cloudy 61 16 61 16 100 100 SSW 5 7 30.09 1019 7 11.26538 0 0
1:56 am 01:56 Cloudy with Mist and Fog 60 15.5 60 15.5 100 100 SSW 6 9 30.07 1018 6 9.65604 0 0
2:04 am 02:04 Cloudy 61 16 61 16 100 100 SSW 8 13 30.09 1019 7 11.26538 0 0
2:30 am 02:30 Mostly Cloudy with Mist and Fog 61 16 61 16 100 100 SW 7 11 30.09 1019 6 9.65604 0 0
2:56 am 02:56 Cloudy with Mist and Fog 60 15.5 60 15.5 100 100 WSW 7 11 30.07 1018 5 8.0467 0 0
3:07 am 03:07 Cloudy with Mist and Fog 61 16 61 16 100 100 WSW 7 11 30.09 1019 5 8.0467 0 0
3:15 am 03:15 Cloudy with Mist and Fog 61 16 61 16 100 100 W 7 11 30.09 1019 5 8.0467 0 0
3:25 am 03:25 Cloudy with Mist and Fog 61 16 61 16 100 100 W 6 9 30.09 1019 4 6.43736 0 0
3:56 am 03:56 Cloudy with Mist and Fog 61 16.1 61 16.1 100 100 WNW 8 13 30.08 1019 3 4.82802 0 0
4:05 am 04:05 Cloudy with Mist and Fog 61 16 61 16 100 100 WNW 7 11 30.09 1019 3 4.82802 0 0
4:33 am 04:33 Cloudy with Mist and Fog 61 16 61 16 100 100 WNW 6 9 30.09 1019 3 4.82802 0 0
4:56 am 04:56 Cloudy with Mist and Fog 60 15.5 60 15.5 100 100 NW 8 13 30.09 1019 3 4.82802 0 0
5:29 am 05:29 Partly Cloudy with Mist and Fog 57 14 57 14 100 100 NNW 7 11 30.09 1019 4 6.43736 0 0
5:56 am 05:56 Clear with Mist and Fog 56 13.3 56 13.3 100 100 NW 5 7 30.08 1019 4 6.43736 0 0
6:56 am 06:56 Partly Cloudy with Mist and Fog 55 12.7 55 12.7 100 100 Calm 30.09 1019 3 4.82802 0 0
7:08 am 07:08 Partly Cloudy with Mist and Fog 55 13 55 13 100 100 WNW 3 6 30.09 1019 2 3.21868 0 0
7:16 am 07:16 Sunny with Mist and Fog 54 12 54 12 100 100 W 3 6 30.09 1019 1.5 2.41401 0 0
7:25 am 07:25 Sunny with Mist and Fog 54 12 54 12 100 100 W 3 6 30.09 1019 1.25 2.011675 0 0
7:35 am 07:35 Sunny with Mist and Fog 55 13 55 13 100 100 W 3 6 30.09 1019 0.75 1.207005 0 0
7:38 am 07:38 Sunny with Fog 54 12 54 12 100 100 W 3 6 30.09 1019 0.25 0.402335 0 0
7:48 am 07:48 Sunny with Mist and Fog 55 13 55 13 100 100 WNW 5 7 30.12 1020 0.75 1.207005 0 0
7:56 am 07:56 Sunny with Mist and Fog 55 12.7 55 12.7 100 100 NW 6 9 30.11 1020 1.75 2.816345 0 0
8:13 am 08:13 Mostly Cloudy with Mist and Fog 55 13 55 13 100 100 WNW 6 9 30.12 1020 1.5 2.41401 0 0
8:42 am 08:42 Sunny with Mist and Fog 57 14 55 13 94 94 NW 7 11 30.12 1020 2 3.21868 0 0
8:49 am 08:49 Partly Cloudy with Mist and Fog 57 14 55 13 94 94 NW 7 11 30.12 1020 2.5 4.02335 0 0
8:56 am 08:56 Partly Cloudy with Mist and Fog 58 14.4 56 13.3 93 93 NW 9 15 30.12 1020 2.5 4.02335 0 0
9:13 am 09:13 Partly Cloudy with Mist and Fog 57 14 55 13 94 94 NNW 9 15 30.12 1020 3 4.82802 0 0
9:56 am 09:56 Hazy 60 15.5 53 11.6 78 78 NW 6 9 30.12 1020 4 6.43736 0 0
10:56 am 10:56 Hazy 64 17.7 50 10 61 61 NW 8 13 30.13 1020 5 8.0467 0 0
11:56 am 11:56 Hazy 68 20 46 7.7 45 45 N 10 17 30.12 1020 6 9.65604 0 0
12:56 pm 12:56 Hazy 70 21.1 46 7.7 42 42 VRB 7 11 30.11 1020 6 9.65604 0 0
1:56 pm 13:56 Hazy 72 22.2 44 6.6 37 37 NNW 8 13 30.09 1019 6 9.65604 0 0
2:56 pm 14:56 Hazy 74 23.3 42 5.5 32 32 VRB 6 9 30.06 1018 6 9.65604 0 0
3:56 pm 15:56 Hazy 74 23.3 39 3.8 28 28 VRB 3 6 30.05 1018 6 9.65604 0 0
4:56 pm 16:56 Hazy 75 23.8 41 5 30 30 NW 5 7 30.03 1017 6 9.65604 0 0
5:56 pm 17:56 Hazy 75 23.8 41 5 30 30 W 7 11 30.03 1017 6 9.65604 0 0
6:56 pm 18:56 Hazy 73 22.7 41 5 32 32 NNW 7 11 30.03 1017 6 9.65604 0 0
7:56 pm 19:56 Hazy 68 20 42 5.5 39 39 NNW 6 9 30.03 1017 6 9.65604 0 0
8:56 pm 20:56 Clear 66 18.8 40 4.4 39 39 NNW 5 7 30.04 1017 7 11.26538 0 0
9:56 pm 21:56 Clear 62 16.6 42 5.5 48 48 N 3 6 30.06 1018 7 11.26538 0 0
10:56 pm 22:56 Clear 59 15 41 5 51 51 Calm 30.06 1018 7 11.26538 0 0
11:56 pm 23:56 Clear 53 11.6 44 6.6 72 72 E 3 6 30.06 1018 7 11.26538 0 0

Powered by AerisWeather